STARLINK-35348, 65904

Orbit data source: Space-Track

STARLINK-35348, 65904 is a payload satellite owned by SpaceX/Seattle (US) in LEO that was launched on Tue, 07 Oct 2025 UTC via an FALCON 9 launch vehicle from the Air Force Eastern Test Range (AFETR). Payload-class satellites include a variety of spacecraft equipped with specific instruments for various scientific and technological missions. These include communications satellites like Starlink; space stations such as the ISS; scientific satellites like the Hubble; Earth observation satellites from companies like Planet Labs, Umbra, and HawkEye 360; GPS; miniature CubeSats for education and research; and military/defense satellites.

Loading next visibility...
Identifier
65904, 2025-224Y
Orbit
LEO
Country
Flag of USUS
Related business
Manufacturer
SpaceX/Seattle
Mission
Operational Commercial Communications
Bus & Motor
STARLINK V2MO, Unknown motor
Mass
575 kg wet, ~530 kg dry
Launch date (UTC)
2025-10-07 (4 months ago)
Launch vehicle
FALCON 9
Launch site
Air Force Eastern Test Range (AFETR)
Object type
Payload
Rocket body
Debris
Shape & HBR
Box + 2 Pan, 17.7 m
Radar Cross Section
36.964 m²

Expand to show TLE details & history
Last TLE update: 1 day ago

TLE from 1 day ago
0 STARLINK-35348
1 65904U 25224Y   26022.55352301  .00028535  00000-0  97251-3 0  9995
2 65904  53.1595 225.4261 0001362 110.9887 249.1259 15.30178686 17760
Epoch: 2026-01-22T13:17Z
TLE epoch observation values (Epoch: 2026-01-22T13:17:04.388Z)
Latitude
-0.00005°
Longitude
-95.74725°
Altitude
476.511 km
Speed
7.629 km/s
True Right ascension
15h 01m 42s
True Declination
0° 00' 00"
Sunlit
Object was in daylight at epoch
Visualization orbit readout
Latitude
Unknown
Longitude
Unknown
Altitude
Unknown
Speed
Unknown
Apparent Right ascension
Unknown
Apparent Declination
Unknown
Sunlit
N/A
Visualization observer readout
Local Sidereal Time
22:14:54
Azimuth
Unknown
Elevation
Unknown
Doppler factor
Unknown
Orbital elements
Apogee altitude
476.469 km
Perigee altitude
474.602 km
Semi-major axis
6,853.672 km
Eccentricity
0.00014
Inclination
53.1595°
RAAN
225.4261°
Arg. of periapsis
110.9887°
True anomaly
249.11132°
Mean anomaly
249.1259°
Eccentric anomaly
249.11861°
Mean motion
3.82524 °/min
Orbital period
94.11 mins
BSTAR
0.00097251
Loading maneuver chart data...
Computing Atmospheric mass density...
Loading historical data...
Loading historical data...
Loading historical data...
Loading historical data...
Loading historical data...
Loading historical data...
Loading historical data...

Documentation

Showing up to 5 results
|